Henderson, KY

12:38 AM CST on December 06, 2019 (GMT -0600)
Henderson City-County

Weather History for KEHR - October, 2019

Change the Weather History Date:

Monday, October 28, 2019

  Actual Average Record
Temperature  
Mean Temperature 50 °F -  
Max Temperature 59 °F 66 °F 86 °F (1940)
Min Temperature 42 °F 43 °F 23 °F (1976)
Degree Days  
Heating Degree Days 14    
Moisture  
Dew Point 50 °F    
Average Humidity 93    
Maximum Humidity 100    
Minimum Humidity 75    
Precipitation  
Precipitation 0.00 in - - ()
Sea Level Pressure  
Sea Level Pressure 30.09 in    
Wind  
Wind Speed 3 mph (SSW)    
Max Wind Speed 9 mph    
Max Gust Speed -    
Visibility 6 miles    
Events Fog    
Averages and records for this station are not official NWS values.
T = Trace of Precipitation, MM = Missing Value Source: NWS Daily Summary

Daily Weather History Graph

Daily Weather History Graph

Search for Another Location

Airport or City:

Astronomy

Oct. 28, 2019 Rise Set
Actual Time 7:11 AM CDT 5:56 PM CDT
Civil Twilight 6:44 AM CDT 6:23 PM CDT
Nautical Twilight 6:13 AM CDT 6:54 PM CDT
Astronomical Twilight 5:43 AM CDT 7:24 PM CDT
Moon 7:33 AM CDT (10/28) 6:41 PM CDT (10/28)
Length of Visible Light 11h 38m
Length of Day
10h 44m
New Moon, 0% of the Moon is Illuminated
Oct 28
New Moon
Nov 4
First Quarter
Nov 12
Full
Nov 19
Last Quarter
Nov 26
New

Hourly Weather History & Observations

Time (CDT) Temp. Dew Point Humidity Pressure Visibility Wind Dir Wind Speed Gust Speed Precip Events Conditions
12:56 AM 48.9 °F 48.0 °F 97% 30.08 in 10.0 mi SW 5.8 mph - N/A   Clear
1:56 AM 46.9 °F 46.9 °F 100% 30.07 in 2.5 mi Calm Calm - N/A   Clear
2:00 AM 46.4 °F 46.4 °F 100% 30.07 in 1.0 mi Calm Calm - N/A   Clear
2:18 AM 46.4 °F 44.6 °F 93% 30.07 in 0.5 mi Calm Calm - N/A Fog Fog
2:56 AM 44.1 °F 43.0 °F 96% 30.07 in 0.5 mi Calm Calm - N/A Fog Fog
3:04 AM 44.6 °F 42.8 °F 93% 30.07 in 0.2 mi Calm Calm - N/A Fog Fog
3:49 AM 42.8 °F 42.8 °F 100% 30.06 in 1.0 mi Calm Calm - N/A   Clear
3:52 AM 42.8 °F 42.8 °F 100% 30.06 in 0.8 mi Calm Calm - N/A   Mist
3:56 AM 43.0 °F 43.0 °F 100% 30.07 in 0.5 mi Calm Calm - N/A Fog Fog
4:02 AM 44.6 °F 44.6 °F 100% 30.07 in 0.8 mi Calm Calm - N/A   Mostly Cloudy
4:05 AM 44.6 °F 44.6 °F 100% 30.07 in 1.5 mi Calm Calm - N/A   Mostly Cloudy
4:08 AM 44.6 °F 44.6 °F 100% 30.07 in 3.0 mi Calm Calm - N/A   Mostly Cloudy
4:21 AM 46.4 °F 46.4 °F 100% 30.07 in 8.0 mi Calm Calm - N/A   Overcast
4:56 AM 48.9 °F 48.0 °F 97% 30.08 in 2.5 mi Calm Calm - N/A   Overcast
5:06 AM 48.2 °F 48.2 °F 100% 30.08 in 1.5 mi Calm Calm - N/A   Overcast
5:24 AM 50.0 °F 50.0 °F 100% 30.09 in 1.0 mi Calm Calm - N/A   Overcast
5:56 AM 51.1 °F 50.0 °F 96% 30.10 in 1.0 mi Calm Calm - N/A   Overcast
6:05 AM 51.8 °F 51.8 °F 100% 30.10 in 1.8 mi Calm Calm - N/A   Overcast
6:13 AM 51.8 °F 51.8 °F 100% 30.10 in 2.5 mi SSW 3.5 mph - N/A   Overcast
6:20 AM 51.8 °F 51.8 °F 100% 30.10 in 4.0 mi SSW 3.5 mph - N/A   Overcast
6:53 AM 51.8 °F 51.8 °F 100% 30.11 in 2.5 mi SSW 4.6 mph - N/A   Overcast
6:56 AM 52.0 °F 51.1 °F 97% 30.12 in 2.5 mi SW 4.6 mph - N/A   Overcast
7:56 AM 52.0 °F 52.0 °F 100% 30.12 in 1.5 mi SSW 3.5 mph - N/A   Overcast
8:27 AM 53.6 °F 51.8 °F 94% 30.11 in 2.0 mi South 4.6 mph - N/A   Overcast
8:45 AM 53.6 °F 53.6 °F 100% 30.12 in 3.0 mi South 5.8 mph - N/A   Overcast
8:56 AM 53.1 °F 53.1 °F 100% 30.12 in 2.5 mi South 5.8 mph - N/A   Overcast
9:05 AM 53.6 °F 53.6 °F 100% 30.12 in 3.0 mi South 6.9 mph - N/A   Overcast
9:32 AM 53.6 °F 53.6 °F 100% 30.12 in 10.0 mi SSW 6.9 mph - N/A   Overcast
9:44 AM 53.6 °F 53.6 °F 100% 30.12 in 10.0 mi South 5.8 mph - N/A   Overcast
9:56 AM 54.0 °F 53.1 °F 97% 30.12 in 10.0 mi SSW 6.9 mph - N/A   Overcast
10:03 AM 53.6 °F 53.6 °F 100% 30.12 in 10.0 mi SSW 6.9 mph - N/A   Overcast
10:36 AM 55.4 °F 51.8 °F 88% 30.11 in 10.0 mi SSW 5.8 mph - N/A   Overcast
10:56 AM 55.9 °F 52.0 °F 87% 30.12 in 10.0 mi SW 9.2 mph - N/A   Overcast
11:46 AM 55.4 °F 51.8 °F 88% 30.11 in 10.0 mi SW 8.1 mph - N/A   Overcast
11:56 AM 55.9 °F 51.1 °F 84% 30.11 in 10.0 mi SW 6.9 mph - N/A   Overcast
12:56 PM 55.9 °F 51.1 °F 84% 30.09 in 10.0 mi Calm Calm - N/A   Overcast
1:12 PM 57.2 °F 51.8 °F 82% 30.08 in 10.0 mi Calm Calm - N/A   Overcast
1:56 PM 59.0 °F 52.0 °F 78% 30.07 in 10.0 mi West 4.6 mph - N/A   Overcast
2:56 PM 59.0 °F 51.1 °F 75% 30.07 in 10.0 mi South 3.5 mph - N/A   Overcast
3:56 PM 59.0 °F 52.0 °F 78% 30.06 in 10.0 mi SW 3.5 mph - N/A   Overcast
4:56 PM 59.0 °F 52.0 °F 78% 30.06 in 10.0 mi Calm Calm - N/A   Overcast
5:56 PM 59.0 °F 52.0 °F 78% 30.06 in 10.0 mi Calm Calm - N/A   Overcast
6:56 PM 57.9 °F 52.0 °F 81% 30.06 in 10.0 mi SE 4.6 mph - N/A   Overcast
7:56 PM 57.9 °F 52.0 °F 81% 30.06 in 10.0 mi South 6.9 mph - N/A   Overcast
9:56 PM 57.0 °F 52.0 °F 83% 30.07 in 10.0 mi South 5.8 mph - N/A   Overcast
10:56 PM 57.0 °F 52.0 °F 83% 30.08 in 10.0 mi SSW 5.8 mph - N/A   Overcast
11:56 PM 57.0 °F 52.0 °F 83% 30.07 in 10.0 mi South 8.1 mph - N/A   Overcast